Vorticity
nan nan nan nan nan nan nan nan nan nan nan nan nan nan nan nan nan nan nan nan nan nan
nan 9 9 8 7 9 8 9 10 9 8 8 9 9 8 8 9 9 8 9 8 nan
nan 8 10 10 9 7 9 9 9 8 7 8 10 11 10 8 9 8 7 10 9 nan
nan 9 9 8 9 9 8 9 9 9 9 8 9 11 9 7 8 8 8 8 9 nan
nan 9 8 8 8 10 9 9 9 9 9 10 10 10 10 9 9 9 8 8 8 nan
nan 9 8 9 9 11 11 9 11 12 11 10 9 10 11 10 8 9 9 9 8 nan
nan 8 10 10 10 9 7 6 5 7 10 12 12 11 10 10 8 8 8 9 9 nan
nan 11 11 12 12 8 6 4 2 5 7 8 7 7 8 8 9 9 9 9 10 nan
nan 15 13 15 15 14 13 11 8 7 5 6 10 5 4 4 11 11 9 8 9 nan
nan 9 10 10 11 12 13 17 17 12 13 11 10 10 9 9 12 13 13 11 10 nan
nan 9 9 9 8 8 9 11 13 13 13 13 11 13 13 17 16 14 12 12 11 nan
nan 8 9 9 10 9 11 10 9 9 10 9 9 10 8 12 15 15 14 11 11 nan
nan 11 9 8 10 11 9 9 10 11 10 8 11 12 10 8 10 11 13 13 13 nan
nan nan nan nan nan nan nan nan nan nan nan nan nan nan nan nan nan nan nan nan nan nan
CAPE
34 57 138 440 473 249 221 376 535 543 847 884 785 618 569 501 369 409 469 480 318 539
392 244 131 183 407 541 460 412 376 637 738 799 832 877 759 728 615 566 517 507 535 423
365 527 590 227 334 378 414 383 401 276 270 285 607 607 638 670 666 598 542 530 515 402
264 363 659 803 647 471 467 352 253 188 129 151 478 662 741 652 611 610 601 472 453 402
556 517 511 717 755 714 642 589 611 594 267 301 496 743 782 705 895 621 536 442 319 417
976 1001 861 658 705 846 1071 1046 502 574 649 556 512 536 571 563 566 564 586 529 441 402
1385 1285 1377 1235 1197 1004 532 259 107 278 449 612 452 300 345 476 570 582 572 519 466 444
1338 1536 1464 1319 1028 774 215 36 74 5 83 27 297 709 813 494 634 776 754 589 446 453
1437 1027 1127 1076 849 775 273 176 149 13 0 123 13 85 165 183 885 891 913 941 698 603
151 0 0 0 0 0 8 167 139 10 168 56 0 1 9 43 189 744 784 839 839 797
0 0 0 0 0 0 0 0 0 0 0 0 98 103 14 0 15 132 382 773 867 917
0 0 0 0 0 0 0 0 0 0 0 0 0 0 0 0 0 3 84 170 460 796
0 0 0 0 0 0 0 0 0 0 0 1 0 0 0 0 0 1 4 7 4 137
0 0 0 0 0 0 0 0 0 0 0 0 0 0 0 0 0 2 0 32 324 263